Tracking 31027 objects as of 19-Jul-2025
HD Live streaming from Space Station
objects crossing your sky now

OPS 4682 DEB

Track OPS 4682 DEB now!
10-day predictions


NORAD ID: 38408
Int'l Code: 1965-027DM
Perigee: 1,230.4 km
Apogee: 1,293.3 km
Inclination: 90.3 °
Period: 110.6 minutes
Semi major axis: 7632 km
RCS: 0.011 m2 (small)
Launch date: April 3, 1965
Source: United States (US)
Launch site: AIR FORCE WESTERN TEST RANGE (AFWTR)

Note: This is SATELLITE DEBRIS
Your satellite tracking list
STARLINK-2062
Track 1 satellite(s)




NASA's NSSDC Master Catalog

Two Line Element Set (TLE):
1 38408U 65027DM  25197.70922370  .00000241  00000-0  75218-3 0  9990
2 38408  90.2808   6.6808 0041186 340.6722  19.2837 13.01884337561554
Source of the keplerian elements: AFSPC